Location: Antichan
(42.9728°N, 0.6667°E)
Time: 12:21:58
(UTC+00:00)

Cosmos 1666 - Pass Details

Date: 15 August 2020
Orbit: 498 x 520 km, 82.5° (Epoch: 24 September)

Event Time Altitude Azimuth Distance (km) Brightness Sun altitude
Exits shadow 22:12:10 30° 349° (N) 919 4.4 -28.0°
Drops below altitude 10° 22:14:16 10° 1° (N) 1,724 6.1 -28.2°
Sets 22:16:26 0° 5° (N) 2,617 7.1 -28.4°
